[[{"header":{"parameterUnit":"m.s-1","parameterCategory":1,"la1":30.2991,"la2":30.254,"lo1":-89.0895,"lo2":-89.0444,"dy":0.0017,"dx":0.0017,"nx":28,"ny":28,"refTime":"2023-11-20T09:00:00:Z","depth":0,"parameterNumber":2,"parameterNumberName":"U-component_of_WINDS"},"data":[0,0,0,0,0,0,0,0,0,0,0,0,0,0,0,0,0,0,0,0,0,0,0,0,0,0,0,0,0,0,0,0,0,0,0,0,0,0,0,0,0,0,0,0,0,0,0,0,0,0,0,0,0,0,0,0,0,0,-2.9188,-2.9188,0,-2.9235,-2.9236,-2.9236,-2.9151,-2.9148,-2.9145,-2.9142,-2.9192,-2.9196,-2.92,0,0,0,0,0,0,0,0,0,0,0,0,0,-2.9022,-2.9026,-2.9187,-2.9188,-2.9189,-2.9235,-2.9236,-2.9236,-2.9151,-2.9148,-2.9144,-2.9141,-2.9191,-2.9196,-2.92,0,0,0,0,0,0,0,0,0,0,0,0,0,-2.9085,-2.9027,-2.9187,-2.9152,-2.9149,-2.9235,-2.9236,-2.9237,-2.9152,-2.9148,-2.9144,-2.914,-2.9189,-2.9195,-2.9201,-2.9324,0,0,-2.9219,-2.9222,0,0,0,0,0,0,0,0,-2.9081,-2.9091,-2.9156,-2.9154,-2.9152,-2.9183,-2.9196,-2.9266,-2.9153,-2.9151,-2.9142,-2.9137,-2.9193,-2.9198,-2.9216,-2.9327,-2.9329,-2.922,-2.9224,-2.9226,-2.9228,0,0,0,0,0,0,0,-2.9077,-2.9088,-2.9206,-2.9157,-2.9155,-2.9133,-2.9137,-2.9209,-2.9195,-2.9151,-2.9145,-2.9152,-2.919,-2.9211,-2.9217,-2.9329,-2.922,-2.9225,-2.9229,-2.9231,-2.9542,-2.9546,0,0,0,0,0,0,-2.9077,-2.9085,-2.9205,-2.9208,-2.9105,-2.914,-2.9144,-2.9177,-2.9194,-2.9193,-2.9155,-2.9147,-2.9203,-2.921,-2.9218,-2.9363,-2.9226,-2.9232,-2.9235,-2.9537,-2.9543,-2.9548,0,0,0,0,0,0,-2.9074,-2.9089,-2.9203,-2.9145,-2.9158,-2.9147,-2.9185,-2.918,-2.9201,-2.9198,-2.9195,-2.9179,-2.92,-2.921,-2.9298,-2.9364,-2.9234,-2.924,-2.9532,-2.9539,-2.9545,-2.9654,0,0,0,0,0,0,-2.907,-2.9088,-2.9135,-2.9147,-2.9161,-2.9282,-2.9189,-2.9184,-2.9211,-2.9201,-2.9219,-2.9218,-2.9197,-2.929,-2.9304,-2.9369,-2.9245,-2.9526,-2.9535,-2.9543,-2.9644,-2.9664,-2.968,0,0,0,0,0,-2.9064,-2.9164,-2.9138,-2.9152,-2.922,-2.9286,-2.9295,-2.9269,-2.9217,-2.9264,-2.9261,-2.9217,-2.9354,-2.93,-2.9315,-2.9383,-2.9521,-2.9532,-2.9542,-2.9636,-2.966,-2.968,0,0,0,0,0,0,-2.916,-2.9165,-2.9136,-2.9242,-2.9265,-2.9272,-2.933,-2.9295,-2.9332,-2.9322,-2.9288,-2.9293,-2.9388,-2.9394,-2.9333,-2.9503,-2.9429,-2.9443,-2.9495,-2.9517,-2.9535,-2.9531,-2.925,0,0,0,0,0,-2.9194,-2.9248,-2.9249,-2.9343,-2.9355,-2.9341,-2.9369,-2.9347,-2.9369,-2.9378,-2.9382,-2.9405,-2.9453,-2.9486,-2.953,-2.9645,-2.9647,-2.9699,-2.9717,-2.9732,-2.9744,-2.9805,-2.9828,-2.9582,-2.9582,-2.9582,0,0,-2.9264,-2.9273,-2.9309,-2.9362,-2.9377,-2.9433,-2.9349,-2.9413,-2.9454,-2.9388,-2.9471,-2.9475,-2.9498,-2.96,-2.9645,-2.9609,-2.9813,-2.9745,-2.9757,-2.9761,-2.9818,-2.9841,-2.9862,-2.9589,-2.9588,-2.9587,0,0,-2.942,-2.9433,-2.9512,-2.9528,-2.9551,-2.9541,-2.956,-2.9573,-2.9573,-2.9656,-2.9607,-2.9655,-2.9739,-2.9757,-2.9778,-2.994,-2.9901,-2.9956,-3.0049,-3.0109,-3.0128,-3.0145,-3.0202,-3.0223,-2.9968,-2.9969,-2.9969,0,-2.9505,-2.9588,-2.9558,-2.9624,-2.9649,-2.959,-2.967,-2.9687,-2.9724,-2.9742,-2.97,-2.9803,-2.9815,-2.992,-2.996,-2.9978,-2.9999,-2.9954,-3.0128,-3.0144,-3.016,-3.0214,-3.0236,-2.9975,-2.9974,-2.9974,-2.9973,0,-2.969,-2.9748,-2.9809,-2.9845,-2.9877,-2.995,-2.9931,-2.9966,-2.9941,-2.9936,-3.002,-3.0032,-3.0077,-3.0101,-3.0077,-3.0203,-3.0179,-3.0133,-3.0058,-3.019,-3.0241,-3.0261,-2.9984,-2.9982,-2.998,-2.9979,0,0,-2.9909,-2.9927,-2.995,-2.9965,-2.9986,-3.003,-3.01,-3.0144,-3.0175,-3.0202,-3.0259,-3.0331,-3.0289,-3.0312,-3.029,-3.0342,-3.0469,-3.0289,-3.0289,-3.0322,-3.0607,-3.0641,-3.0666,-3.0443,-3.0447,-3.045,-3.0605,0,-3.0064,-3.0184,-3.0159,-3.0277,-3.033,-3.0275,-3.0336,-3.0356,-3.0352,-3.0396,-3.0392,-3.0443,-3.0383,-3.0397,-3.0446,-3.0444,-3.0526,-3.0432,-3.0496,-3.0499,-3.0492,-3.0692,-3.0728,-3.0874,-3.0624,-3.0628,-3.063,0,-3.0261,-3.0295,-3.0418,-3.043,-3.0451,-3.0506,-3.0544,-3.0587,-3.0607,-3.0601,-3.0626,-3.0594,-3.0663,-3.0588,-3.0683,-3.0619,-3.0644,-3.0647,-3.0652,-3.0656,-3.0572,-3.0702,-3.092,-3.0942,-3.0661,-3.0659,-3.0656,0,-3.0407,-3.0484,-3.0567,-3.0582,-3.0598,-3.0638,-3.0646,-3.0662,-3.069,-3.0723,-3.074,-3.0781,-3.0803,-3.0836,-3.0815,-3.0762,-3.0913,-3.0836,-3.0909,-3.091,-3.0943,-3.0941,-3.1168,-3.096,-3.096,-3.096,-3.0959,0,-3.0583,-3.066,-3.0633,-3.0685,-3.077,-3.074,-3.0825,-3.0827,-3.0842,-3.0892,-3.0847,-3.0896,-3.0866,-3.0912,-3.0896,-3.0977,-3.0987,-3.0984,-3.0978,-3.0987,-3.0988,-3.1003,-3.0992,-3.0965,-3.0964,-3.0963,-3.0962,0,-3.0761,-3.0746,-3.0833,-3.0841,-3.0844,-3.0907,-3.0913,-3.096,-3.0953,-3.1018,-3.1031,-3.102,-3.1071,-3.1054,-3.111,-3.1099,-3.1201,-3.1183,-3.1194,-3.1189,-3.1263,-3.1256,-3.1507,-3.1538,-3.1311,-3.1313,-3.1315,0,-3.0874,-3.0932,-3.0945,-3.0976,-3.0987,-3.1037,-3.1065,-3.1038,-3.1068,-3.1096,-3.114,-3.1187,-3.1224,-3.1309,-3.1306,-3.1348,-3.133,-3.1415,-3.1336,-3.1343,-3.1331,-3.1327,-3.1332,-3.1431,-3.1433,-3.1436,-3.1437,0,-3.1075,-3.1065,-3.1106,-3.1145,-3.118,-3.1209,-3.1235,-3.1262,-3.1236,-3.1273,-3.1325,-3.1354,-3.141,-3.1457,-3.1495,-3.1503,-3.1466,-3.1462,-3.1481,-3.1491,-3.1494,-3.1492,-3.1236,-3.1457,-3.1455,-3.1453,-3.1452,-3.1451,-3.1223,-3.1272,-3.1289,-3.1337,-3.1353,-3.1378,-3.1422,-3.142,-3.1463,-3.1507,-3.1488,-3.1548,-3.1566,-3.1613,-3.1626,-3.1673,-3.164,-3.1668,-3.1674,-3.1682,-3.1691,-3.1487,-3.168,-3.1679,-3.1678,-3.1678,-3.1678,0,-3.1422,-3.143,-3.1474,-3.1511,-3.1548,-3.1509,-3.1535,-3.1569,-3.1622,-3.1642,-3.1679,-3.1739,-3.1784,-3.1785,-3.1827,-3.1864,-3.1848,-3.1876,-3.1872,-3.1875,-3.1718,-3.1697,-3.1888,-3.1888,-3.1888,-3.1888,-3.1888,-3.1888,-3.1529,-3.1609,-3.1601,-3.1689,-3.1696,-3.1754,-3.1772,-3.1795,-3.181,-3.1878,-3.1916,-3.1916,-3.1928,-3.197,-3.201,-3.2009,-3.2026,-3.2061,-3.2053,-3.1907,-3.1886,-3.1866,-3.1846,-3.2065,-3.2066,-3.2206,-3.2207,-3.2208]},{"header":{"parameterUnit":"m.s-1","parameterCategory":1,"la1":30.2991,"la2":30.254,"lo1":-89.0895,"lo2":-89.0444,"dy":0.0017,"dx":0.0017,"nx":28,"ny":28,"refTime":"2023-11-20T09:00:00:Z","depth":0,"parameterNumber":3,"parameterNumberName":"V-component_of_WINDS"},"data":[0,0,0,0,0,0,0,0,0,0,0,0,0,0,0,0,0,0,0,0,0,0,0,0,0,0,0,0,0,0,0,0,0,0,0,0,0,0,0,0,0,0,0,0,0,0,0,0,0,0,0,0,0,0,0,0,0,0,-0.9369,-0.9368,0,-0.9305,-0.9304,-0.9303,-0.9306,-0.9307,-0.9307,-0.9308,-0.9238,-0.9235,-0.9233,0,0,0,0,0,0,0,0,0,0,0,0,0,-0.9486,-0.9483,-0.9369,-0.9368,-0.9367,-0.9305,-0.9304,-0.9303,-0.9305,-0.9307,-0.9308,-0.9309,-0.9239,-0.9236,-0.9232,0,0,0,0,0,0,0,0,0,0,0,0,0,-0.9429,-0.9483,-0.9369,-0.9361,-0.936,-0.9305,-0.9304,-0.9303,-0.9305,-0.9307,-0.9308,-0.9309,-0.924,-0.9236,-0.9232,-0.918,0,0,-0.922,-0.9218,0,0,0,0,0,0,0,0,-0.9433,-0.9425,-0.9363,-0.9361,-0.936,-0.9315,-0.932,-0.9262,-0.9305,-0.9326,-0.9308,-0.931,-0.9262,-0.9256,-0.9241,-0.9177,-0.9174,-0.9219,-0.9217,-0.9215,-0.9214,0,0,0,0,0,0,0,-0.9437,-0.9428,-0.9343,-0.9362,-0.936,-0.9358,-0.9352,-0.9309,-0.9287,-0.9324,-0.9324,-0.9317,-0.9261,-0.9245,-0.924,-0.9172,-0.9219,-0.9216,-0.9213,-0.9212,-0.9056,-0.9055,0,0,0,0,0,0,-0.9443,-0.9431,-0.9345,-0.9341,-0.94,-0.9355,-0.9348,-0.9328,-0.9287,-0.9283,-0.9316,-0.9317,-0.9251,-0.9244,-0.9237,-0.917,-0.9215,-0.9211,-0.9209,-0.9058,-0.9056,-0.9054,0,0,0,0,0,0,-0.9445,-0.9435,-0.9348,-0.9386,-0.9375,-0.9352,-0.9329,-0.9326,-0.9309,-0.9281,-0.9277,-0.9303,-0.9252,-0.9243,-0.9193,-0.9167,-0.9209,-0.9206,-0.906,-0.9057,-0.9055,-0.9037,0,0,0,0,0,0,-0.9449,-0.9436,-0.9418,-0.9386,-0.9373,-0.9307,-0.9328,-0.9324,-0.9303,-0.9304,-0.9268,-0.9264,-0.9253,-0.9199,-0.9189,-0.9163,-0.9202,-0.9062,-0.9059,-0.9056,-0.9039,-0.9034,-0.9029,0,0,0,0,0,-0.9453,-0.9416,-0.9417,-0.9407,-0.935,-0.9306,-0.9298,-0.9288,-0.9301,-0.9281,-0.9262,-0.9265,-0.9172,-0.9194,-0.9183,-0.9155,-0.9064,-0.906,-0.9056,-0.9042,-0.9035,-0.9029,0,0,0,0,0,0,-0.9445,-0.9411,-0.9413,-0.9364,-0.9338,-0.9307,-0.9281,-0.9281,-0.925,-0.9252,-0.9238,-0.923,-0.9179,-0.9162,-0.9187,-0.9099,-0.9119,-0.9113,-0.9112,-0.9106,-0.9101,-0.9104,-0.9199,0,0,0,0,0,-0.9437,-0.9406,-0.9378,-0.9338,-0.9325,-0.9305,-0.9286,-0.9279,-0.9251,-0.9239,-0.9217,-0.9188,-0.9151,-0.9128,-0.9094,-0.9037,-0.9027,-0.9012,-0.9007,-0.9003,-0.8997,-0.8961,-0.8952,-0.9042,-0.9042,-0.9042,0,0,-0.9422,-0.9399,-0.9381,-0.9335,-0.9314,-0.9279,-0.9296,-0.9259,-0.9232,-0.9233,-0.9185,-0.9167,-0.9133,-0.9079,-0.9054,-0.9063,-0.897,-0.8998,-0.8995,-0.8991,-0.8956,-0.8947,-0.894,-0.9039,-0.9039,-0.904,0,0,-0.9374,-0.9356,-0.9319,-0.9297,-0.9265,-0.9252,-0.9242,-0.921,-0.9198,-0.915,-0.9148,-0.9115,-0.9054,-0.9029,-0.9008,-0.8947,-0.8947,-0.8936,-0.8908,-0.8873,-0.8866,-0.886,-0.8834,-0.8826,-0.8931,-0.8931,-0.8931,0,-0.9358,-0.9308,-0.9299,-0.9261,-0.924,-0.924,-0.9199,-0.9178,-0.9136,-0.9119,-0.9131,-0.9052,-0.9029,-0.8967,-0.8951,-0.8936,-0.8922,-0.8939,-0.8869,-0.8862,-0.8856,-0.8831,-0.8822,-0.8929,-0.893,-0.893,-0.893,0,-0.9288,-0.9252,-0.9226,-0.9185,-0.916,-0.9122,-0.9104,-0.908,-0.9075,-0.9059,-0.9007,-0.8979,-0.8937,-0.8922,-0.8918,-0.8857,-0.8864,-0.8872,-0.8891,-0.8846,-0.8822,-0.8813,-0.8927,-0.8928,-0.8928,-0.8929,0,0,-0.9234,-0.9187,-0.9177,-0.9157,-0.912,-0.9091,-0.9051,-0.901,-0.8988,-0.8958,-0.8921,-0.8868,-0.8874,-0.885,-0.8842,-0.8812,-0.876,-0.8823,-0.8822,-0.8809,-0.8687,-0.8678,-0.8668,-0.876,-0.8759,-0.8757,-0.8688,0,-0.918,-0.911,-0.91,-0.9036,-0.9001,-0.8999,-0.8963,-0.8935,-0.8918,-0.8884,-0.8865,-0.8826,-0.884,-0.8824,-0.8795,-0.8773,-0.8735,-0.8778,-0.8722,-0.872,-0.8727,-0.8656,-0.8648,-0.8585,-0.8679,-0.8678,-0.8677,0,-0.9109,-0.9077,-0.901,-0.8975,-0.8959,-0.8927,-0.8887,-0.8856,-0.8822,-0.8811,-0.8783,-0.8778,-0.8732,-0.8754,-0.8688,-0.8718,-0.8694,-0.8679,-0.8676,-0.8668,-0.8694,-0.8643,-0.8565,-0.8554,-0.8663,-0.8664,-0.8665,0,-0.9072,-0.9012,-0.8963,-0.8947,-0.8905,-0.8881,-0.8862,-0.883,-0.8805,-0.8769,-0.8752,-0.8711,-0.8688,-0.8655,-0.8637,-0.8656,-0.857,-0.8593,-0.8557,-0.8557,-0.8537,-0.8538,-0.845,-0.8527,-0.8527,-0.8528,-0.8528,0,-0.9012,-0.897,-0.8946,-0.8916,-0.8867,-0.8854,-0.8806,-0.8787,-0.8757,-0.8721,-0.8717,-0.8682,-0.8662,-0.8623,-0.8609,-0.8553,-0.8544,-0.8531,-0.8527,-0.853,-0.8531,-0.8512,-0.8514,-0.8525,-0.8526,-0.8526,-0.8527,0,-0.8962,-0.8944,-0.889,-0.8854,-0.8844,-0.881,-0.8778,-0.8746,-0.8729,-0.8683,-0.8671,-0.8643,-0.8597,-0.8576,-0.8519,-0.8509,-0.8445,-0.8446,-0.8456,-0.8454,-0.8418,-0.842,-0.8313,-0.8296,-0.8387,-0.8386,-0.8386,0,-0.8923,-0.8891,-0.8851,-0.8827,-0.8807,-0.8768,-0.8742,-0.8727,-0.8699,-0.8656,-0.8629,-0.8583,-0.8545,-0.847,-0.8443,-0.8398,-0.8395,-0.8361,-0.8388,-0.839,-0.839,-0.839,-0.8385,-0.8355,-0.8354,-0.8353,-0.8353,0,-0.8855,-0.8847,-0.8811,-0.877,-0.874,-0.8707,-0.8675,-0.8654,-0.8633,-0.8601,-0.8554,-0.8525,-0.8466,-0.8418,-0.8371,-0.8348,-0.8344,-0.8344,-0.8333,-0.8333,-0.8339,-0.8331,-0.8439,-0.8346,-0.8347,-0.8347,-0.8348,-0.8348,-0.8807,-0.8776,-0.8742,-0.8701,-0.8675,-0.8644,-0.8611,-0.859,-0.8551,-0.8502,-0.8495,-0.8443,-0.8405,-0.8341,-0.8317,-0.8274,-0.8281,-0.8266,-0.8262,-0.8257,-0.8253,-0.8349,-0.8265,-0.8265,-0.8266,-0.8266,-0.8266,0,-0.8735,-0.8713,-0.8675,-0.8629,-0.8595,-0.8598,-0.8561,-0.8531,-0.8486,-0.8453,-0.8415,-0.8358,-0.8311,-0.8279,-0.8231,-0.8202,-0.8199,-0.8189,-0.8189,-0.8183,-0.8251,-0.8264,-0.8192,-0.8192,-0.8192,-0.8192,-0.8192,-0.8192,-0.8694,-0.8641,-0.8628,-0.8561,-0.8538,-0.8488,-0.8466,-0.8436,-0.8408,-0.8345,-0.8307,-0.8287,-0.8252,-0.82,-0.8156,-0.8147,-0.8127,-0.8117,-0.8108,-0.8171,-0.8179,-0.8186,-0.8198,-0.8114,-0.8114,-0.8043,-0.8043,-0.8042]}]]